FW8643 Weather Reports


Display with metric or nautical units.
time (UTC)temp
F
wind
direction
speed
MPH
gust
MPH
rain 1hr
in
rain 24hr
in
rain mn
in
humidity
%
barometer
mb
20260503054558 70 0 0.0 0.0 0.01 0.12 0.03 88 1013.4
20260503053039 70 0 0.0 1.0 0.01 0.11 0.02 88 1014.0
20260503051620 70 0 0.0 2.0 0.02 0.11 0.02 88 1014.1
20260503050047 70 0 0.0 2.0 0.02 0.11 0.02 88 1014.0
20260503044547 70 0 0.0 2.0 0.02 0.11 0.02 88 1014.3
20260503043051 70 309 0.0 3.0 0.01 0.10 0.01 87 1014.2
20260503041542 70 0 0.0 1.0 0.00 0.09 0.00 87 1013.9
20260503040040 70 0 0.0 2.0 0.00 0.09 0.00 87 1013.4
20260503034545 70 0 0.0 0.0 0.00 0.09 0.09 87 1012.5
20260503033037 70 0 0.0 1.0 0.00 0.09 0.09 88 1012.5
20260503031544 70 176 0.0 3.0 0.00 0.09 0.09 88 1012.3
20260503030041 70 0 0.0 4.0 0.00 0.09 0.09 88 1012.4
20260503024540 70 209 0.0 3.0 0.00 0.09 0.09 88 1012.4
20260503023039 70 0 0.0 3.0 0.00 0.09 0.09 88 1012.4
20260503021547 70 0 0.0 3.0 0.00 0.09 0.09 88 1011.8
20260503020037 70 0 0.0 3.0 0.00 0.09 0.09 88 1011.8
20260503014551 70 0 0.0 4.0 0.00 0.09 0.09 88 1011.6
20260503013044 70 0 0.0 3.0 0.01 0.09 0.09 88 1011.5
20260503011542 70 0 1.0 3.0 0.01 0.09 0.09 88 1011.3
20260503010041 70 182 0.0 5.0 0.01 0.09 0.09 88 1011.4
20260503004540 70 0 0.0 3.0 0.01 0.09 0.09 88 1010.8
20260503003044 70 0 0.0 4.0 0.01 0.08 0.08 88 1009.7
20260503001548 70 325 1.0 5.0 0.02 0.08 0.08 88 1009.9
20260503000044 71 161 2.0 5.0 0.02 0.08 0.08 88 1009.9
20260502234549 71 0 0.0 2.0 0.02 0.08 0.08 88 1010.0
20260502233042 71 0 0.0 3.0 0.02 0.07 0.07 87 1010.1
20260502231538 71 248 2.0 7.0 0.01 0.06 0.06 87 1010.2
20260502230045 71 174 0.0 5.0 0.01 0.06 0.06 87 1010.3
20260502224545 71 167 0.0 4.0 0.02 0.06 0.06 87 1010.7
20260502223043 71 169 2.0 6.0 0.04 0.05 0.05 86 1010.2
20260502221540 71 168 0.0 3.0 0.04 0.05 0.05 85 1010.6
20260502220038 71 200 1.0 6.0 0.05 0.05 0.05 85 1010.9
20260502214555 71 177 0.0 3.0 0.04 0.04 0.04 84 1010.8
20260502213041 72 23 1.0 10.0 0.01 0.01 0.01 82 1010.7
20260502211542 73 341 2.0 8.0 0.01 0.01 0.01 79 1010.4
20260502210048 73 0 1.0 5.0 0.00 0.00 0.00 75 1010.2
20260502204543 74 218 1.0 11.0 0.00 0.00 0.00 73 1010.3
20260502203045 76 317 6.0 16.0 0.00 0.00 0.00 68 1010.5
20260502201544 81 331 9.0 17.0 0.00 0.00 0.00 62 1010.8
20260502200047 83 194 2.0 8.0 0.00 0.00 0.00 67 1010.0
20260502194541 84 182 2.0 7.0 0.00 0.00 0.00 66 1010.2
20260502193040 84 43 3.0 10.0 0.00 0.00 0.00 65 1010.2
20260502191540 84 332 3.0 9.0 0.00 0.00 0.00 64 1010.2
20260502190043 85 239 1.0 12.0 0.00 0.00 0.00 65 1010.3
20260502184550 85 142 4.0 10.0 0.00 0.00 0.00 64 1010.2
20260502183040 86 192 3.0 10.0 0.00 0.00 0.00 62 1010.4
20260502181544 86 169 7.0 15.0 0.00 0.00 0.00 61 1010.3
20260502163050 86 245 5.0 16.0 0.00 0.00 0.00 64 1010.6
20260502161541 85 174 4.0 15.0 0.00 0.00 0.00 64 1010.9
20260502151551 83 155 2.0 9.0 0.00 0.00 0.00 68 1011.1
20260502123049 70 205 1.0 6.0 0.00 0.00 0.00 90 1010.1
20260502121539 69 166 1.0 5.0 0.00 0.00 0.00 90 1009.9
20260502114539 69 173 0.0 2.0 0.00 0.00 0.00 90 1010.1
20260502113039 68 0 0.0 2.0 0.00 0.00 0.00 89 1010.0
20260502111543 68 0 0.0 0.0 0.00 0.00 0.00 89 1009.8
20260502110041 68 0 0.0 2.0 0.00 0.00 0.00 89 1009.7
20260502104550 68 0 0.0 3.0 0.00 0.00 0.00 88 1009.7
20260502103038 67 153 0.0 3.0 0.00 0.00 0.00 88 1009.3
20260502101613 67 0 0.0 0.0 0.00 0.00 0.00 87 1009.5
20260502100107 67 0 0.0 0.0 0.00 0.00 0.00 87 1009.7
20260502090105 68 0 0.0 0.0 0.00 0.00 0.00 87 1010.2
20260502070047 70 0 0.0 0.0 0.00 0.00 0.00 85 1010.4
20260502064542 70 0 0.0 0.0 0.00 0.00 0.00 85 1010.6